This is the latest recevied weather packets stored in our database for station/object IZ1UQG-2. If no packets are shown the sender has not sent any weather packets the latest 10 day(s).
| Time | Temp. | Humidity | Pressure | Rain* | Wind** | Luminosity | Snow |
|---|---|---|---|---|---|---|---|
| 1778086988 | 14.44° C | 71% | 1006.4 hPa | 0 mm | - | 142 W/m² | - |
| 1778086927 | 14.44° C | 72% | 1006.4 hPa | 0 mm | - | 141 W/m² | - |
| 1778086687 | 14.44° C | 71% | 1006.3 hPa | 0 mm | - | 130 W/m² | - |
| 1778086267 | 14.44° C | 74% | 1006.2 hPa | 0 mm | - | 97 W/m² | - |
| 1778085727 | 14.44° C | 70% | 1006 hPa | 0 mm | - | 63 W/m² | - |
| 1778085547 | 14.44° C | 70% | 1006.1 hPa | 0 mm | - | 63 W/m² | - |
| 1778085187 | 15° C | 69% | 1006.1 hPa | 0 mm | - | 120 W/m² | - |
| 1778084287 | 15° C | 66% | 1005.8 hPa | 0 mm | - | 367 W/m² | - |
| 1778052427 | 11.67° C | 93% | 1006.5 hPa | 0 mm | - | 21 W/m² | - |
| 1778052367 | 11.67° C | 93% | 1006.4 hPa | 0 mm | - | 21 W/m² | - |
| 1778051467 | 11.67° C | 93% | 1006.7 hPa | 0 mm | - | 9 W/m² | - |
| 1778051117 | 11.67° C | 93% | 1006.8 hPa | 0 mm | - | 12 W/m² | - |
| 1778050867 | 11.67° C | 93% | 1006.8 hPa | 0 mm | - | 12 W/m² | - |
| 1778050387 | 11.67° C | 93% | 1006.7 hPa | 0 mm | - | 12 W/m² | - |
| 1778050147 | 11.67° C | 93% | 1006.9 hPa | 0 mm | - | 12 W/m² | - |
| 1778047445 | 11.67° C | 93% | 1006.5 hPa | 5.08 mm | - | 0 W/m² | - |
| 1778047324 | 11.67° C | 93% | 1006.6 hPa | 5.08 mm | - | 0 W/m² | - |
| 1778047024 | 11.67° C | 93% | 1006.5 hPa | 3.81 mm | - | 5 W/m² | - |
| 1778046904 | 11.67° C | 93% | 1006.4 hPa | 3.3 mm | - | 7 W/m² | - |
| 1778046844 | 11.67° C | 93% | 1006.5 hPa | 3.3 mm | - | 7 W/m² | - |
| 1778046064 | 11.67° C | 93% | 1006.6 hPa | 3.3 mm | - | 14 W/m² | - |
| 1778045884 | 11.67° C | 93% | 1006.6 hPa | 3.3 mm | - | 16 W/m² | - |
| 1778045824 | 11.67° C | 93% | 1006.7 hPa | 3.3 mm | - | 16 W/m² | - |
| 1778045405 | 11.67° C | 93% | 1006.8 hPa | 3.05 mm | - | 12 W/m² | - |
| 1778044924 | 11.67° C | 93% | 1006.8 hPa | 2.29 mm | - | 9 W/m² | - |
* Rain latest hour (hover to see other rain measurements)
** Current wind speed in m/s (hover to see current wind gust speed)